Location: Bijele Vode
(45.2833°N, 16.2000°E)
Time: 16:27:20
(UTC+00:00)

CZ-2C R/B - Pass Details

Date: 18 September 2020
Orbit: 704 x 907 km, 98.1° (Epoch: 20 October)

Event Time Altitude Azimuth Distance (km) Brightness Sun altitude
Rises 17:55:32 0° 170° (S) 3,230 6.0 -10.5°
Reaches altitude 10° 17:57:47 10° 173° (S) 2,336 5.3 -10.9°
Maximum altitude 18:02:57 73° 258° (WSW) 855 3.4 -11.8°
Drops below altitude 10° 18:08:29 10° 343° (NNW) 2,487 6.1 -12.7°
Sets 18:10:56 0° 346° (NNW) 3,456 6.8 -13.2°
